Regional Weather Roundup
Issued by NWS

Home | Current Version | Previous Version | Text Only | Print | Product List | Glossary Off
Versions: 1 2 3 4 5 6 7 8 9 10 11 12 13 14 15 16 17 18 19 20 21 22 23 24 25 26 27 28 29 30 31 32 33 34 35 36 37 38 39 40 41 42 43 44 45 46 47 48 49 50

000
ASUS45 KCYS 201610
RWRWY

WYOMING REGIONAL WEATHER ROUNDUP
NATIONAL WEATHER SERVICE CHEYENNE WY
1000 AM MDT MON APR 20 2015

NOTE:  "FAIR" INDICATES FEW OR NO CLOUDS BELOW 12,000 FEET
WITH NO SIGNIFICANT WEATHER AND/OR OBSTRUCTIONS TO VISIBILITY.

WYZ001-201700-
YELLOWSTONE NATIONAL PARK

CITY           SKY/WX    TMP DP  RH WIND       PRES   REMARKS
LK YELLOWSTONE   N/A     30  23  75 E6        30.05F WCI  24
W YELLOWSTONE  NOT AVBL

$$
WYZ002>013-054>058-071-098>099-201700-
NORTHERN WYOMING

CITY           SKY/WX    TMP DP  RH WIND       PRES   REMARKS
JACKSON        FAIR      43  27  52 CALM      30.02S
CODY           FAIR      43  27  52 CALM      29.99F
GREYBULL       FAIR      46  18  32 VRB3      30.00F
WORLAND        FAIR      45  21  38 VRB3      30.00S
SHERIDAN       FAIR      48  21  34 NW16      29.98F
BUFFALO        FAIR      46  19  34 N22       29.96F
GILLETTE       FAIR      45  19  35 NW18      29.95F
HULETT         FAIR      43  19  39 NW12G20   29.95F
NEWCASTLE      FAIR      41  21  45 NW12G18   29.97S

$$
WYZ014>020-022>026-101>103-201700-
CENTRAL WYOMING

CITY           SKY/WX    TMP DP  RH WIND       PRES   REMARKS
BIG PINEY      FAIR      41  26  55 S5        30.02F
PINEDALE       FAIR      41  27  56 MISG      30.03S
DUBOIS         FAIR      43  18  36 N17G23    29.96F
LANDER         FAIR      43  28  55 E3        29.99F
RIVERTON       FAIR      41  25  53 CALM      30.01S
CASPER         FAIR      42  28  57 SW12      30.00S
DOUGLAS        FAIR      44  28  53 NW18      29.99S

$$
WYZ021-027>030-104>119-201700-
SOUTHERN WYOMING

CITY           SKY/WX    TMP DP  RH WIND       PRES   REMARKS
EVANSTON       FAIR      47  24  40 W6        30.02S
KEMMERER       FAIR      43  30  61 SE3       30.02F
FORT BRIDGER   SUNNY     41  34  75 CALM      30.05F
ROCK SPRINGS   CLOUDY    35  33  92 CALM      30.03S
DIXON          CLOUDY    41  32  70 W5        30.06S
RAWLINS        CLOUDY    28  27  96 CALM      30.03F FOG
SARATOGA       CLOUDY    30  28  93 MISG      30.04S
LARAMIE        FOG       23  23 100 S6        30.00S VSB 1/4 WCI  16
CHEYENNE       FAIR      40  24  53 NW14      29.99F WCI  32
TORRINGTON     FAIR      45  24  43 NW14      29.98F
PINE BLUFFS    PTSUNNY   43  21  42 NW12G21   30.00F

$$


USA.gov is the U.S. government's official web portal to all federal, state and local government web resources and services.